[[{"header":{"parameterUnit":"m.s-1","parameterCategory":1,"la1":30.2991,"la2":30.254,"lo1":-89.0895,"lo2":-89.0444,"dy":0.0017,"dx":0.0017,"nx":28,"ny":28,"refTime":"2024-05-08T03:00:00:Z","depth":0,"parameterNumber":2,"parameterNumberName":"U-component_of_WINDS"},"data":[0,0,0,0,0,0,0,0,0,0,0,0,0,0,0,0,0,0,0,0,0,0,0,0,0,0,0,0,0,0,0,0,0,0,0,0,0,0,0,0,0,0,0,0,0,0,0,0,0,0,0,0,0,0,0,0,0,0,-1.0903,-1.0902,0,-1.0893,-1.0893,-1.0893,-1.0905,-1.0905,-1.0906,-1.0906,-1.0895,-1.0894,-1.0894,0,0,0,0,0,0,0,0,0,0,0,0,0,-1.0932,-1.0931,-1.0903,-1.0902,-1.0902,-1.0893,-1.0893,-1.0893,-1.0905,-1.0905,-1.0906,-1.0906,-1.0895,-1.0894,-1.0894,0,0,0,0,0,0,0,0,0,0,0,0,0,-1.092,-1.0931,-1.0903,-1.0907,-1.0908,-1.0893,-1.0893,-1.0893,-1.0905,-1.0905,-1.0906,-1.0906,-1.0896,-1.0894,-1.0893,-1.0873,0,0,-1.089,-1.089,0,0,0,0,0,0,0,0,-1.0921,-1.0919,-1.0907,-1.0907,-1.0907,-1.0901,-1.0899,-1.0886,-1.0904,-1.0906,-1.0906,-1.0907,-1.0896,-1.0895,-1.0892,-1.0873,-1.0872,-1.089,-1.0889,-1.0889,-1.0889,0,0,0,0,0,0,0,-1.0922,-1.092,-1.0899,-1.0906,-1.0907,-1.091,-1.0909,-1.0897,-1.0897,-1.0906,-1.0906,-1.0905,-1.0897,-1.0893,-1.0892,-1.0872,-1.089,-1.0889,-1.0888,-1.0888,-1.0837,-1.0836,0,0,0,0,0,0,-1.0922,-1.092,-1.0899,-1.0898,-1.0916,-1.0909,-1.0908,-1.0902,-1.0897,-1.0897,-1.0905,-1.0906,-1.0894,-1.0893,-1.0891,-1.0868,-1.0889,-1.0888,-1.0887,-1.0838,-1.0837,-1.0836,0,0,0,0,0,0,-1.0922,-1.092,-1.0899,-1.091,-1.0907,-1.0908,-1.0901,-1.0902,-1.0898,-1.0897,-1.0897,-1.0901,-1.0895,-1.0893,-1.0878,-1.0868,-1.0887,-1.0887,-1.0839,-1.0838,-1.0837,-1.082,0,0,0,0,0,0,-1.0923,-1.092,-1.0912,-1.0909,-1.0907,-1.0886,-1.09,-1.0901,-1.0896,-1.0898,-1.0893,-1.0893,-1.0895,-1.088,-1.0877,-1.0866,-1.0886,-1.084,-1.0838,-1.0837,-1.0822,-1.0819,-1.0816,0,0,0,0,0,-1.0924,-1.0908,-1.0912,-1.0909,-1.0897,-1.0885,-1.0884,-1.0887,-1.0895,-1.0887,-1.0887,-1.0893,-1.0869,-1.0878,-1.0875,-1.0864,-1.084,-1.0839,-1.0837,-1.0823,-1.0819,-1.0816,0,0,0,0,0,0,-1.0909,-1.0907,-1.0912,-1.0894,-1.089,-1.0888,-1.0878,-1.0883,-1.0876,-1.0878,-1.0882,-1.0881,-1.0865,-1.0863,-1.0873,-1.0845,-1.0856,-1.0854,-1.0846,-1.0843,-1.084,-1.0841,-1.0885,0,0,0,0,0,-1.0903,-1.0894,-1.0894,-1.0878,-1.0876,-1.0877,-1.0872,-1.0875,-1.0871,-1.0869,-1.0867,-1.0863,-1.0855,-1.0849,-1.0841,-1.0822,-1.0821,-1.0813,-1.081,-1.0808,-1.0806,-1.0796,-1.0792,-1.0831,-1.0831,-1.0831,0,0,-1.0892,-1.089,-1.0884,-1.0875,-1.0872,-1.0862,-1.0875,-1.0865,-1.0858,-1.0867,-1.0853,-1.0852,-1.0847,-1.083,-1.0823,-1.0828,-1.0795,-1.0806,-1.0804,-1.0803,-1.0794,-1.079,-1.0787,-1.083,-1.083,-1.083,0,0,-1.0866,-1.0864,-1.0851,-1.0848,-1.0844,-1.0845,-1.0842,-1.0839,-1.0839,-1.0825,-1.0832,-1.0824,-1.081,-1.0806,-1.0802,-1.0777,-1.0782,-1.0774,-1.0759,-1.075,-1.0747,-1.0744,-1.0735,-1.0732,-1.0772,-1.0772,-1.0772,0,-1.0852,-1.0838,-1.0843,-1.0832,-1.0828,-1.0837,-1.0824,-1.0821,-1.0814,-1.0811,-1.0818,-1.08,-1.0798,-1.078,-1.0774,-1.0771,-1.0767,-1.0774,-1.0747,-1.0744,-1.0742,-1.0733,-1.073,-1.0771,-1.0771,-1.0771,-1.0771,0,-1.0821,-1.0812,-1.0802,-1.0796,-1.0791,-1.0778,-1.0781,-1.0776,-1.078,-1.078,-1.0766,-1.0764,-1.0756,-1.0752,-1.0756,-1.0736,-1.0739,-1.0746,-1.0758,-1.0737,-1.0729,-1.0726,-1.077,-1.077,-1.077,-1.0771,0,0,-1.0784,-1.0782,-1.0778,-1.0776,-1.0773,-1.0765,-1.0754,-1.0747,-1.0742,-1.0737,-1.0728,-1.0716,-1.0723,-1.0719,-1.0722,-1.0714,-1.0694,-1.0722,-1.0722,-1.0716,-1.0671,-1.0666,-1.0662,-1.0698,-1.0697,-1.0697,-1.0672,0,-1.0758,-1.0739,-1.0743,-1.0724,-1.0715,-1.0725,-1.0715,-1.0712,-1.0713,-1.0706,-1.0706,-1.0698,-1.0708,-1.0705,-1.0697,-1.0698,-1.0684,-1.07,-1.0689,-1.0688,-1.0689,-1.0657,-1.0651,-1.0627,-1.0668,-1.0668,-1.0668,0,-1.0725,-1.072,-1.07,-1.0699,-1.0695,-1.0686,-1.0681,-1.0674,-1.0671,-1.0672,-1.0668,-1.0673,-1.0662,-1.0674,-1.0659,-1.067,-1.0666,-1.0665,-1.0664,-1.0663,-1.0676,-1.0654,-1.062,-1.0616,-1.0663,-1.0663,-1.0663,0,-1.0699,-1.0688,-1.0674,-1.0672,-1.0671,-1.0664,-1.0663,-1.0661,-1.0657,-1.0652,-1.0649,-1.0643,-1.0639,-1.0634,-1.0638,-1.0646,-1.0622,-1.0634,-1.0623,-1.0622,-1.0616,-1.0616,-1.058,-1.0615,-1.0615,-1.0615,-1.0615,0,-1.067,-1.0657,-1.0663,-1.0655,-1.0641,-1.0647,-1.0633,-1.0633,-1.0631,-1.0623,-1.0631,-1.0624,-1.0629,-1.0622,-1.0625,-1.0612,-1.061,-1.0611,-1.0611,-1.0609,-1.0609,-1.0606,-1.0608,-1.0614,-1.0614,-1.0614,-1.0614,0,-1.0638,-1.0642,-1.0628,-1.0628,-1.0628,-1.0618,-1.0618,-1.061,-1.0612,-1.0602,-1.06,-1.0603,-1.0595,-1.0598,-1.059,-1.0592,-1.0575,-1.0578,-1.0576,-1.0577,-1.0564,-1.0565,-1.0524,-1.0519,-1.0557,-1.0557,-1.0557,0,-1.0619,-1.0609,-1.0609,-1.0604,-1.0603,-1.0595,-1.0591,-1.0597,-1.0592,-1.0589,-1.0582,-1.0575,-1.0569,-1.0556,-1.0557,-1.0551,-1.0554,-1.054,-1.0553,-1.0551,-1.0553,-1.0553,-1.0553,-1.0537,-1.0537,-1.0536,-1.0536,0,-1.0583,-1.0586,-1.058,-1.0575,-1.057,-1.0566,-1.0562,-1.0558,-1.0564,-1.0558,-1.0551,-1.0547,-1.0538,-1.0531,-1.0526,-1.0525,-1.0531,-1.0532,-1.0529,-1.0526,-1.0526,-1.0526,-1.0568,-1.0533,-1.0533,-1.0533,-1.0533,-1.0534,-1.0557,-1.0549,-1.0548,-1.0541,-1.054,-1.0537,-1.053,-1.0531,-1.0525,-1.0519,-1.0523,-1.0514,-1.0512,-1.0506,-1.0504,-1.0497,-1.0502,-1.0498,-1.0496,-1.0495,-1.0493,-1.0527,-1.0496,-1.0496,-1.0496,-1.0496,-1.0496,0,-1.0522,-1.0522,-1.0516,-1.0511,-1.0506,-1.0514,-1.0511,-1.0506,-1.0498,-1.0496,-1.049,-1.0482,-1.0475,-1.0476,-1.047,-1.0464,-1.0467,-1.0463,-1.0463,-1.0463,-1.0489,-1.0492,-1.0461,-1.0461,-1.0461,-1.0461,-1.0461,-1.0461,-1.0503,-1.0491,-1.0493,-1.048,-1.048,-1.0472,-1.0469,-1.0467,-1.0465,-1.0455,-1.045,-1.0451,-1.0451,-1.0445,-1.0439,-1.044,-1.0437,-1.0431,-1.0433,-1.0457,-1.0461,-1.0464,-1.0467,-1.0431,-1.0431,-1.0407,-1.0407,-1.0406]},{"header":{"parameterUnit":"m.s-1","parameterCategory":1,"la1":30.2991,"la2":30.254,"lo1":-89.0895,"lo2":-89.0444,"dy":0.0017,"dx":0.0017,"nx":28,"ny":28,"refTime":"2024-05-08T03:00:00:Z","depth":0,"parameterNumber":3,"parameterNumberName":"V-component_of_WINDS"},"data":[0,0,0,0,0,0,0,0,0,0,0,0,0,0,0,0,0,0,0,0,0,0,0,0,0,0,0,0,0,0,0,0,0,0,0,0,0,0,0,0,0,0,0,0,0,0,0,0,0,0,0,0,0,0,0,0,0,0,6.8935,6.8934,0,6.8874,6.8874,6.8873,6.8794,6.8793,6.8791,6.879,6.8725,6.8725,6.8724,0,0,0,0,0,0,0,0,0,0,0,0,0,6.8982,6.8981,6.8935,6.8934,6.8933,6.8875,6.8874,6.8873,6.8794,6.8793,6.8791,6.879,6.8725,6.8725,6.8724,0,0,0,0,0,0,0,0,0,0,0,0,0,6.8945,6.8981,6.8935,6.8887,6.8882,6.8875,6.8874,6.8873,6.8795,6.8793,6.8791,6.8789,6.8726,6.8725,6.8724,6.8758,0,0,6.8722,6.8721,0,0,0,0,0,0,0,0,6.8947,6.8944,6.8895,6.889,6.8885,6.884,6.8866,6.8834,6.8795,6.8828,6.879,6.8788,6.8765,6.8761,6.8753,6.8754,6.8752,6.8721,6.8721,6.8721,6.872,0,0,0,0,0,0,0,6.895,6.8946,6.8911,6.8894,6.8888,6.8869,6.8861,6.886,6.8808,6.8825,6.8819,6.8813,6.8762,6.8754,6.8751,6.8751,6.8721,6.8721,6.872,6.872,6.8779,6.8781,0,0,0,0,0,0,6.896,6.8948,6.8913,6.8909,6.8912,6.8869,6.8861,6.8856,6.8807,6.8798,6.8815,6.881,6.8757,6.8752,6.8749,6.8786,6.8721,6.872,6.8719,6.8777,6.878,6.8782,0,0,0,0,0,0,6.8961,6.8958,6.8915,6.8927,6.892,6.8871,6.8866,6.8856,6.8849,6.88,6.879,6.8817,6.8755,6.875,6.8757,6.8783,6.872,6.8719,6.8775,6.8778,6.8781,6.886,0,0,0,0,0,0,6.8963,6.8958,6.8971,6.8928,6.892,6.8925,6.8867,6.8856,6.8848,6.8841,6.8799,6.8791,6.8753,6.8758,6.8756,6.878,6.8718,6.8772,6.8776,6.878,6.8855,6.8866,6.8875,0,0,0,0,0,6.8965,6.8994,6.8972,6.8968,6.8934,6.8926,6.8922,6.8879,6.885,6.8862,6.8832,6.8792,6.8781,6.876,6.8756,6.8781,6.877,6.8775,6.8779,6.8851,6.8864,6.8875,0,0,0,0,0,0,6.9039,6.8988,6.8962,6.8978,6.8958,6.8913,6.8926,6.8893,6.8879,6.8873,6.8819,6.8811,6.8825,6.8803,6.8781,6.8812,6.877,6.8774,6.8825,6.8837,6.8847,6.8851,6.8717,0,0,0,0,0,6.9058,6.9056,6.9011,6.903,6.9021,6.8976,6.8971,6.894,6.8916,6.8906,6.8876,6.8853,6.8845,6.884,6.8829,6.8853,6.8843,6.8868,6.8878,6.8886,6.889,6.8903,6.8914,6.8797,6.8797,6.8797,0,0,6.9095,6.9067,6.9069,6.9045,6.9025,6.9024,6.8969,6.897,6.8969,6.8906,6.8911,6.8889,6.886,6.8876,6.8882,6.8859,6.8921,6.8892,6.8899,6.8898,6.8909,6.892,6.893,6.88,6.88,6.8799,0,0,6.9164,6.9143,6.9157,6.9139,6.9111,6.9081,6.9085,6.9046,6.9029,6.9034,6.8987,6.8986,6.8971,6.8954,6.8943,6.9009,6.8973,6.9007,6.9058,6.9072,6.9081,6.9089,6.9113,6.9123,6.9012,6.9012,6.9012,0,6.9214,6.9212,6.9168,6.9173,6.9164,6.9109,6.9124,6.9108,6.9078,6.9073,6.9048,6.9032,6.9008,6.9021,6.9038,6.903,6.9033,6.9011,6.9083,6.9091,6.9097,6.912,6.913,6.9016,6.9016,6.9015,6.9015,0,6.9276,6.9275,6.929,6.9264,6.9257,6.9267,6.9225,6.9223,6.9194,6.9167,6.9174,6.9145,6.9129,6.9129,6.91,6.9138,6.9125,6.9093,6.9049,6.9114,6.9134,6.9143,6.9023,6.9021,6.902,6.9019,0,0,6.9386,6.9339,6.9345,6.9333,6.93,6.9298,6.9307,6.9292,6.9292,6.9274,6.928,6.9271,6.9242,6.923,6.9199,6.9211,6.9267,6.9177,6.9175,6.9195,6.9309,6.9333,6.9344,6.9243,6.9245,6.9246,6.9312,0,6.9448,6.946,6.9422,6.9444,6.9444,6.9393,6.9401,6.9381,6.9358,6.9354,6.9327,6.9323,6.9284,6.9277,6.9286,6.9258,6.9289,6.9253,6.9248,6.9249,6.9256,6.9354,6.9379,6.9442,6.9319,6.932,6.9321,0,6.9521,6.9509,6.9531,6.9499,6.9498,6.9505,6.949,6.9487,6.9465,6.9447,6.9436,6.9401,6.9407,6.9367,6.9375,6.9352,6.9348,6.9335,6.9336,6.9333,6.9288,6.9354,6.9461,6.9471,6.9333,6.9332,6.9332,0,6.9601,6.959,6.9602,6.9594,6.9556,6.9563,6.9548,6.9524,6.9518,6.9506,6.9502,6.949,6.9483,6.9475,6.9438,6.9411,6.9451,6.9407,6.9437,6.9438,6.9446,6.9446,6.9554,6.9445,6.9445,6.9445,6.9444,0,6.9673,6.9689,6.9638,6.9645,6.9662,6.9619,6.9636,6.9616,6.9596,6.9599,6.9555,6.9558,6.9509,6.9508,6.9479,6.9492,6.9489,6.9475,6.9466,6.9478,6.948,6.9474,6.9469,6.9447,6.9446,6.9446,6.9446,0,6.9764,6.973,6.974,6.9705,6.9697,6.9711,6.9681,6.9687,6.9662,6.9666,6.9665,6.9625,6.9622,6.9585,6.9572,6.9553,6.9577,6.956,6.9585,6.9579,6.9611,6.9609,6.9718,6.9731,6.9615,6.9616,6.9617,0,6.9812,6.9823,6.9791,6.979,6.9777,6.9777,6.9772,6.9732,6.9728,6.9706,6.9715,6.9708,6.9701,6.9698,6.9668,6.9659,6.9642,6.9681,6.964,6.9652,6.9643,6.9643,6.9644,6.9689,6.9691,6.9692,6.9693,0,6.9902,6.9885,6.988,6.9871,6.9867,6.9857,6.9844,6.9847,6.9802,6.9801,6.9798,6.9792,6.9782,6.9776,6.9763,6.9747,6.9713,6.9707,6.9713,6.9725,6.9739,6.9732,6.9608,6.9704,6.9703,6.9702,6.9702,6.9701,6.9972,6.9981,6.996,6.9957,6.9944,6.9934,6.9938,6.9915,6.9912,6.9901,6.9877,6.9878,6.9858,6.9837,6.9825,6.9825,6.9805,6.9814,6.9816,6.9819,6.9826,6.974,6.9823,6.9822,6.9822,6.9822,6.9821,0,7.006,7.0045,7.0042,7.0027,7.0026,6.9996,6.9982,6.9982,6.9984,6.9968,6.9963,6.9961,6.9956,6.9927,6.992,6.9926,6.991,6.9925,6.9924,6.9921,6.9844,6.9839,6.9938,6.9938,6.9938,6.9938,6.9938,6.9938,7.0105,7.0118,7.01,7.0107,7.0092,7.0093,7.0088,7.0079,7.0067,7.0067,7.0063,7.0045,7.0025,7.0016,7.0011,7.0003,7.0002,7.0022,7.0009,6.9937,6.9926,6.9915,6.9911,7.0023,7.0023,7.0086,7.0086,7.0087]}]]